Location: Azul
(36.7830°S, 59.8500°W)
Time: 12:15:37
(UTC-03:00)

DX 1 - Pass Details

Date: 29 October 2021
Orbit: 619 x 629 km, 98.4° (Epoch: 29 November)

Event Time Altitude Azimuth Distance (km) Brightness Sun altitude
Rises 21:35:10 0° 323° (NW) 2,911 ? -22.8°
Reaches altitude 10° 21:39:20 10° 284° (WNW) 2,017 ? -23.5°
Maximum altitude 21:40:15 11° 271° (W) 1,982 ? -23.6°
Drops below altitude 10° 21:41:11 10° 259° (W) 2,022 ? -23.7°
Sets 21:45:24 0° 220° (SW) 2,942 ? -24.4°
